Location: Unspecified
(0.0000°N, 0.0000°E)
Time: 02:16:09
(UTC+00:00)

SR - Pass Details

Date: 01 October 2020
Orbit: 581 x 874 km, 66.7° (Epoch: 25 October)

Event Time Altitude Azimuth Distance (km) Brightness Sun altitude
Rises 18:22:13 0° 1° (N) 3,182 ? -8.2°
Reaches altitude 10° 18:24:48 10° 12° (NNE) 2,310 ? -8.8°
Maximum altitude 18:29:24 29° 71° (ENE) 1,441 ? -10.0°
Drops below altitude 10° 18:34:15 10° 130° (SE) 2,460 ? -11.2°
Sets 18:37:05 0° 141° (SE) 3,427 ? -11.9°
